Location: Unspecified
(0.0000°N, 0.0000°E)
Time: 18:08:16
(UTC+00:00)

Explorer 27 - Pass Details

Date: 26 May 2026
Orbit: 932 x 1295 km, 41.2° (Epoch: 10 June)

Event Time Altitude Azimuth Distance (km) Brightness Sun altitude
Exits shadow 03:36:43 20° 147° (SSE) 1,994 9.6 -32.4°
Drops below altitude 10° 03:38:33 10° 143° (SE) 2,641 10.4 -32.0°
Sets 03:41:11 0° 140° (SE) 3,604 11.2 -31.4°
